Location: Cargill Incorporated Elevator
(42.7294°N, 93.7333°W)
Time: 04:24:01
(UTC+00:00)

SMAP - Pass Details

Date: 19 January 2026
Orbit: 682 x 683 km, 98.1° (Epoch: 15 February)

Event Time Altitude Azimuth Distance (km) Brightness Sun altitude
Rises 23:29:18 0° 161° (SSE) 3,032 6.5 -3.8°
Reaches altitude 10° 23:31:31 10° 160° (SSE) 2,121 5.7 -4.1°
Maximum altitude 23:36:09 76° 75° (ENE) 709 3.0 -4.9°
Drops below altitude 10° 23:40:49 10° 350° (N) 2,136 5.5 -5.7°
Sets 23:43:04 0° 349° (N) 3,056 6.3 -6.1°
